Weather History for Palm Springs, CA

Change the Weather History Date:

Monday, April 29, 2013

  Actual Average Record
Temperature  
Mean Temperature 87 °F 74 °F  
Max Temperature 106 °F 88 °F 106 °F (1959)
Min Temperature 68 °F 61 °F 39 °F (1970)
Degree Days  
Heating Degree Days 0 0  
Month to date heating degree days 0 17  
Since 1 July heating degree days 760 868  
Cooling Degree Days 22 10  
Month to date cooling degree days 282 190  
Year to date cooling degree days 514 310  
Growing Degree Days 37 (Base 50)    
Moisture  
Dew Point 34 °F    
Average Humidity 21    
Maximum Humidity 37    
Minimum Humidity 5    
Precipitation  
Precipitation 0.00 in 0.01 in 0.60 in (1942)
Month to date precipitation 0.00 0.11  
Year to date precipitation 0.97 2.75  
Since 1 July precipitation 2.19 5.55  
Snow  
Snow 0.00 in - - ()
Month to date snowfall 0.0  
Year to date snowfall 0.0  
Since 1 July snowfall 0.0  
Snow Depth 0.00 in    
Sea Level Pressure  
Sea Level Pressure 29.66 in    
Wind  
Wind Speed 3 mph (NW)    
Max Wind Speed 20 mph    
Max Gust Speed 25 mph    
Visibility 10 miles    
Events      
T = Trace of Precipitation, MM = Missing Value Source: NWS Daily Summary

Daily Weather History Graph

Daily Weather History Graph

Search for Another Location

Airport:

Trip Planner

Search our weather history database for the weather conditions in past years. The results will help you decide how hot, cold, wet, or windy it might be!

Date:

Astronomy

Apr. 29, 2013 Rise Set
Actual Time 5:58 AM PDT 7:28 PM PDT
Civil Twilight 5:32 AM PDT 7:54 PM PDT
Nautical Twilight 5:00 AM PDT 8:26 PM PDT
Astronomical Twilight 4:27 AM PDT 8:59 PM PDT
Moon 11:52 PM PDT (4/29) 9:29 AM PDT (4/29)
Length of Visible Light 14h 22m
Length of Day
13h 29m
Waning Gibbous, 79% of the Moon is Illuminated
Apr 29
Waning Gibbous
May 2
Last Quarter
May 9
New
May 17
First Quarter
May 24
Full

Hourly Weather History & Observations

Time (PDT) Temp. Dew Point Humidity Pressure Visibility Wind Dir Wind Speed Gust Speed Precip Events Conditions
12:53 AM 80.1 °F 36.0 °F 20% 29.71 in 10.0 mi Calm Calm - N/A   Clear
1:53 AM 77.0 °F 39.0 °F 25% 29.70 in 10.0 mi NNE 3.5 mph - N/A   Clear
2:53 AM 75.9 °F 39.9 °F 27% 29.70 in 10.0 mi Calm Calm - N/A   Clear
3:53 AM 75.9 °F 39.0 °F 26% 29.69 in 10.0 mi Calm Calm - N/A   Clear
4:53 AM 75.0 °F 37.0 °F 25% 29.70 in 10.0 mi Calm Calm - N/A   Clear
5:53 AM 70.0 °F 43.0 °F 38% 29.71 in 10.0 mi Calm Calm - N/A   Clear
6:53 AM 73.0 °F 41.0 °F 31% 29.73 in 10.0 mi Calm Calm - N/A   Clear
7:53 AM 77.0 °F 39.9 °F 26% 29.73 in 10.0 mi Calm Calm - N/A   Clear
8:53 AM 84.9 °F 39.0 °F 20% 29.72 in 10.0 mi Variable 3.5 mph - N/A   Clear
9:53 AM 91.0 °F 30.0 °F 11% 29.72 in 10.0 mi Calm Calm - N/A   Clear
10:53 AM 97.0 °F 26.1 °F 8% 29.71 in 10.0 mi Calm Calm - N/A   Clear
11:53 AM 99.0 °F 25.0 °F 7% 29.70 in 10.0 mi Calm Calm - N/A   Clear
12:53 PM 100.9 °F 26.1 °F 7% 29.67 in 10.0 mi Calm Calm - N/A   Clear
1:53 PM 104.0 °F 24.1 °F 6% 29.65 in 10.0 mi WNW 13.8 mph 20.7 mph N/A   Clear
2:53 PM 104.0 °F 23.0 °F 6% 29.62 in 10.0 mi NNW 9.2 mph 25.3 mph N/A   Clear
3:53 PM 102.9 °F 26.1 °F 7% 29.60 in 10.0 mi West 9.2 mph 19.6 mph N/A   Clear
4:53 PM 100.9 °F 28.0 °F 8% 29.58 in 10.0 mi WNW 6.9 mph 19.6 mph N/A   Clear
5:53 PM 100.0 °F 28.9 °F 8% 29.57 in 10.0 mi NW 19.6 mph 25.3 mph N/A   Clear
6:53 PM 97.0 °F 27.0 °F 8% 29.57 in 10.0 mi NW 16.1 mph 23.0 mph N/A   Clear
7:53 PM 93.0 °F 32.0 °F 12% 29.57 in 10.0 mi NW 17.3 mph 24.2 mph N/A   Clear
8:53 PM 89.1 °F 39.0 °F 17% 29.59 in 10.0 mi NNW 18.4 mph 27.6 mph N/A   Clear
9:53 PM 88.0 °F 34.0 °F 15% 29.60 in 10.0 mi West 4.6 mph - N/A   Clear
10:53 PM 81.0 °F 42.1 °F 25% 29.61 in 10.0 mi SSE 5.8 mph - N/A   Clear
11:53 PM 80.1 °F 44.1 °F 28% 29.62 in 10.0 mi Calm Calm - N/A   Clear